Regional Weather Roundup
Issued by NWS

Home | Current Version | Previous Version | Graphics & Text | Print | Product List | Glossary On
Versions: 1 2 3 4 5 6 7 8 9 10 11 12 13 14 15 16 17 18 19 20 21 22 23 24 25 26 27 28 29 30 31 32 33 34 35 36 37 38 39 40 41 42 43 44 45 46 47 48 49 50
597
ASUS43 KLMK 210310
RWRKY
KENTUCKY REGIONAL WEATHER ROUNDUP
NATIONAL WEATHER SERVICE LOUISVILLE KY
1000 PM EST SAT JAN 20 2018

NOTE "FAIR" INDICATES FEW OR NO CLOUDS BELOW 12,000 FEET
WITH NO SIGNIFICANT WEATHER AND/OR OBSTRUCTIONS TO VISIBILITY.

KYZ001>023-026-027-061>063-070>075-210400-
WESTERN AND SOUTH CENTRAL KENTUCKY

CITY           SKY/WX    TMP DP  RH WIND       PRES   REMARKS
PADUCAH        CLOUDY    49  41  74 S5        30.08F
HENDERSON      NOT AVBL
OWENSBORO      LGT RAIN  42  36  79 S5        30.10F
HOPKINSVILLE   MOCLDY    55  44  65 S8        30.12R
BOWLING GREEN  CLOUDY    53  37  54 S8        30.13F
GLASGOW        CLOUDY    51  33  50 S6        30.15F
$$

KYZ024-025-028>034-038-045-046-053-210400-
NORTH CENTRAL KENTUCKY

CITY           SKY/WX    TMP DP  RH WIND       PRES   REMARKS
LOUISVILLE/SDF FAIR      49  42  77 SW5       30.11F
LOUISVILLE/LOU MOCLDY    47  43  86 S6        30.11F
FORT KNOX      CLOUDY    45  41  86 S3        30.10F
$$

KYZ035>037-039>044-047>052-055>060-089>105-210400-
NORTHEAST KENTUCKY

CITY           SKY/WX    TMP DP  RH WIND       PRES   REMARKS
LEXINGTON      CLOUDY    48  42  80 SE7       30.14S
COVINGTON      CLOUDY    44  43  96 S5        30.10F
FRANKFORT      CLOUDY    48  41  76 S6        30.12F
$$

KYZ054-064>069-076>088-106>120-210400-
SOUTHEAST KENTUCKY

CITY           SKY/WX    TMP DP  RH WIND       PRES   REMARKS
JACKSON        MOCLDY    48  39  71 SW5       30.17S
LONDON         FAIR      47  33  58 S3        30.19R
SOMERSET       FAIR      39  34  81 E5        30.19F
MIDDLESBORO    MOCLDY    40  35  81 CALM      30.23S
MONTICELLO     FAIR      36  35  96 W12       30.20F WCI  28
$$





USA.gov is the U.S. government's official web portal to all federal, state and local government web resources and services.